Regional Weather Roundup
Issued by NWS

Home | Current Version | Previous Version | Text Only | Print | Product List | Glossary On
Versions: 1 2 3 4 5 6 7 8 9 10 11 12 13 14 15 16 17 18 19 20 21 22 23 24 25 26 27 28 29 30 31 32 33 34 35 36 37 38 39 40 41 42 43 44 45 46 47 48 49 50
000
ASUS43 KDMX 311707
RWRIA

WEATHER ROUNDUP FOR IOWA
NATIONAL WEATHER SERVICE DES MOINES IA
1200 PM CDT FRI JUL 31 2015

NOTE: "FAIR" INDICATES FEW OR NO CLOUDS BELOW 12,000 FEET WITH NO
SIGNIFICANT WEATHER AND/OR OBSTRUCTIONS TO VISIBILITY.

* - THESE STATIONS ARE NOT NWS STATIONS...THUS NOT UNDER NWS
QUALITY CONTROL.  THEY ALSO DO NOT REPORT WEATHER SUCH
AS PRECIPITATION OR FOG.

IAZ001>003-012>014-020>022-031>034-043>046-311800-
   NORTHWEST IOWA

CITY           SKY/WX    TMP DP  RH WIND       PRES   REMARKS
CARROLL *      SUNNY     81  68  65 CALM      30.14S HX  83
CHEROKEE *     SUNNY     81  63  54 E5        30.15S HX  82
DENISON *      HAZE      81  68  65 N6        30.13S VSB 1/2 HX  83
LE MARS *      SUNNY     82  63  51 VRB5G12   30.15S HX  83
ORANGE CITY *  SUNNY     79  61  53 NE6       30.16S HX  80
SHELDON *      SUNNY     79  61  53 NE8       30.16S HX  80
SIOUX CITY     SUNNY     81  67  62 CALM      30.13F HX  83
SPENCER        SUNNY     82  56  40 N7        30.16S HX  82
STORM LAKE *   SUNNY     81  59  47 NE6       30.17S HX  81
$$

IAZ055>058-069>071-079>083-090>094-311800-
   SOUTHWEST IOWA

CITY           SKY/WX    TMP DP  RH WIND       PRES   REMARKS
ATLANTIC *     SUNNY     82  70  65 CALM      30.14F HX  86
AUDUBON *      SUNNY     84  70  61 N5        30.16S HX  88
CLARINDA *     SUNNY     84  72  65 VRB6      30.15F HX  89
COUNCIL BLFS * SUNNY     88  72  58 W12G18    30.14S HX  94
CRESTON *      SUNNY     81  68  65 W6        30.16F HX  83
HARLAN  *      SUNNY     81  75  83 CALM      30.18S HX  86
LAMONI         SUNNY     84  69  60 W5        30.14S HX  88
RED OAK *      SUNNY     84  73  70 VRB7      30.14S HX  91
SHENANDOAH *   SUNNY     84  73  70 VRB3      30.14F HX  91
$$

IAZ047>049-059>061-072>074-084-311800-
   CENTRAL IOWA

CITY           SKY/WX    TMP DP  RH WIND       PRES   REMARKS
AMES           SUNNY     85  61  44 N7        30.12S HX  85
ANKENY *       SUNNY     84  59  42 CALM      30.12S HX  84
CHARITON *     SUNNY     82  68  61 CALM      30.13S HX  85
DES MOINES     MOSUNNY   87  65  47 VRB3      30.11F HX  89
GRINNELL*      SUNNY     81  61  50 N6        30.12S HX  81
KNOXVILLE *    SUNNY     82  66  57 VRB5      30.11S HX  85
MARSHALLTOWN   SUNNY     82  65  56 MISG      30.11S HX  84
PELLA *        SUNNY     84  66  54 NW5       30.12F HX  86
PERRY *          N/A     82  63  51 CALM      30.13S HX  83
$$

IAZ004>006-015-016-023>025-035-036-311800-
   NORTH CENTRAL IOWA

CITY           SKY/WX    TMP DP  RH WIND       PRES   REMARKS
ALGONA *       SUNNY     79  59  50 N7        30.15S HX  80
CLARION *      SUNNY     79  61  53 N9        30.14S HX  80
ESTHERVILLE    SUNNY     79  57  46 N8        30.15F HX  80
FORT DODGE *   SUNNY     81  63  54 NW7       30.15F HX  82
MASON CITY     MOSUNNY   80  58  46 NW14      30.15R HX  80
FOREST CITY *  SUNNY     77  54  44 NW10      30.14S
IOWA FALLS *     N/A     81  61  50 NW7       30.14S HX  81
$$

IAZ007>011-017>019-026>030-037>042-050>054-066-311800-
   NORTHEAST IOWA

CITY           SKY/WX    TMP DP  RH WIND       PRES   REMARKS
CEDAR RAPIDS   SUNNY     82  63  52 NW12      30.09S HX  83
CHARLES CITY * SUNNY     77  59  53 NW12G18   30.13S
CLINTON *      SUNNY     82  64  54 NW13      30.08F HX  84
DECORAH *      SUNNY     77  52  41 NW14G25   30.09S
DUBUQUE        SUNNY     81  59  47 NW15      30.07F HX  81
MONTICELLO *   SUNNY     82  64  54 W10       30.07F HX  84
OELWEIN *      SUNNY     79  61  53 NW8G18    30.11S HX  80
WATERLOO       SUNNY     81  62  52 N14       30.09S HX  82
$$

IAZ064-065-067-068-078-311800-
   EAST CENTRAL IOWA

CITY           SKY/WX    TMP DP  RH WIND       PRES   REMARKS
DAVENPORT      SUNNY     83  62  49 NW9       30.07F HX  84
IOWA CITY      SUNNY     85  58  39 NW12      30.09F HX  84
MT. PLEASANT * SUNNY     86  59  39 NW5       30.10F HX  85
MUSCATINE *    SUNNY     86  61  42 NW8       30.08F HX  86
QUAD CITIES    SUNNY     87  57  35 NW14G20   30.06F HX  86
$$

IAZ062-063-075>077-085>089-095>099-311800-
   SOUTHEAST IOWA

CITY           SKY/WX    TMP DP  RH WIND       PRES   REMARKS
BURLINGTON     SUNNY     84  68  58 NW7       30.09F HX  87
FORT MADISON * SUNNY     82  72  69 NW8       30.10F HX  87
KEOKUK *       SUNNY     86  66  51 W10       30.10S HX  88
OSKALOOSA *      N/A     82  64  54 CALM      30.11F HX  84
CENTERVILLE *  SUNNY     81  66  61 W9        30.15F HX  83
OTTUMWA        SUNNY     82  68  62 SW5       30.09F HX  85
WASHINGTON *   SUNNY     84  64  51 NW8       30.11F HX  86
$$

ABBREVIATIONS USED IN REMARKS
   TC - TEMPERATURES IN CELSIUS
  WCI - WIND CHILL INDEX
   HX - HEAT INDEX
  VSB - VISIBILITY
$$



USA.gov is the U.S. government's official web portal to all federal, state and local government web resources and services.